SCP
0 0 0 0 0 0 0 0 0 0 0 0 0 0 0 0 0 0 0 0 0 0 0 0 0 0 0 0 0 0 0 0 0 0 0 0 0 0 0 0 0 0 0
0 0 0 0 0 0 0 0 0 0 0 0 0 0 0 0 0 0 0 0 0 0 0 0 0 0 0 0 0 0 0 0 0 0 0 0 0 0 0 0 0 0 0
0 0 0 0 0 0 0 0 0 0 0 0 0 0 0 0 0 0 0 0 0 0 0 0 0 0 0 0 0 0 0 0 0 0 0 0 0 0 0 0 0 0 0
0 0 0 0 0 0 0 0 0 0 0 0 0 0 0 0 0 0 0 0 0 0 0 0 0 0 0 0 0 0 0 0 0 0 0 0 0 0 0 0 0 0 0
0 0 0 0 0 0 0 0 0 0 0 0 0 0 0 0 0 0 0 0 0 0 0 0 0 0 0 0 0 0 0 0 0 0 0 0 0 0 0 0 0 0 0
0 0 0 0 0 0 0 0 0 0 0 0 0 0 0 0 0 0 0 0 0 0 0 0 0 0 0 0 0 0 0 0 0 0 0 0 0 0 0 0 0 0 0
0 0 0 0 0 0 0 0 0 0 0 0 0 0 0 0 0 0 0 0 0 0 0 0 0 0 0 0 0 0 0 0 0 0 0 0 0 0 0 0 0 0 0
0 0 0 0 0 0 0 0 0 0 0 0 0 0 0 0 0 0 0 0 0 0 0 0 0 0 0 0 0 0 0 0 0 0 0 0 0 0 0 0 0 0 0
0 0 0 0 0 0 0 0 0 0 0 0 0 0 0 0 0 0 0 0 0 0 0 0 0 0 0 0 0 0 0 0 0 0 0 0 0 0 0 0 0 0 0
0 0 0 0 0 0 0 0 0 0 0 0 0 0 0 0 0 0 0 0 0 0 0 0 0 0 0 0 0 0 0 0 0 0 0 0 0 0 0 0 0 0 0
0 0 0 0 0 0 0 0 0 0 0 0 0 0 0 0 0 0 0 0 0 0 0 0 0 0 0 0 0 0 0 0 0 0 0 0 0 0 0 0 0 0 0
0 0 0 0 0 0 0 0 0 0 0 0 0 0 0 0 0 0 0 0 0 0 0 0 0 0 0 0 0 0 0 0 0 0 0 0 0 0 0 0 0 0 0
0 0 0 0 0 0 0 0 0 0 0 0 0 0 0 0 0 0 0 0 0 0 0 0 0 0 0 0 0 0 0 0 0 0 0 0 0 0 0 0 0 0 0
0 0 0 0 0 0 0 0 0 0 0 0 0 0 0 0 0 0 0 0 0 0 0 0 0 0 0 0 0 0 0 0 0 0 0 0 0 0 0 0 0 0 0
0 0 0 0 0 0 0 0 0 0 0 0 0 0 0 0 0 0 0 0 0 0 0 0 0 0 0 0 0 0 0 0 0 0 0 0 0 0 0 0 0 0 0
0 0 0 0 0 0 0 0 0 0 0 0 0 0 0 0 0 0 0 0 0 0 0 0 0 0 0 0 0 0 0 0 0 0 0 0 0 0 0 0 0 0 0
0 0 0 0 0 0 0 0 0 0 0 0 0 0 0 0 0 0 0 0 0 0 0 0 0 0 0 0 0 0 0 0 0 0 0 0 0 0 0 0 0 0 0
0 0 0 0 0 0 0 0 0 0 0 0 0 0 0 0 0 0 0 0 0 0 0 0 0 0 0 0 0 0 0 0 0 0 0 0 0 0 0 0 0 0 0
0 0 0 0 0 0 0 0 0 0 0 0 0 0 0 0 0 0 0 0 0 0 0 0 0 0 0 0 0 0 0 0 0 0 0 0 0 0 0 0 0 0 0
0 0 0 0 0 0 0 0 0 0 0 0 0 0 0 0 0 0 0 0 0 0 0 0 0 0 0 0 0 0 0 0 0 0 0 0 0 0 0 0 0 0 0
0 0 0 0 0 0 0 0 0 0 0 0 0 0 0 0 0 0 0 0 0 0 0 0 0 0 0 0 0 0 0 0 0 0 0 0 0 0 0 0 0 0 0
0 0 0 0 0 0 0 0 0 0 0 0 0 0 0 0 0 0 0 0 -0 0 0 0 0 0 0 0 0 0 0 0 0 0 0 0 0 0 0 0 0 0 0
0 0 0 0 0 0 0 0 0 0 0 0 0 0 0 0 0 0 0 0 -0 0 0 0 0 0 0 0 0 0 0 0 0 0 0 0 0 0 0 0 0 0 0
0 0 0 0 0 0 0 0 0 0 0 0 0 0 0 0 0 0 0 0 0 0 0 0 0 0 0 0 0 0 0 0 0 0 0 0 0 0 0 0 0 0 0
0 0 0 0 0 0 0 0 0 0 0 0 0 0 0 0 0 0 0 0 0 0 0 0 0 0 0 0 0 0 0 0 0 0 0 0 0 0 0 0 0 0 0
0 0 0 0 0 0 0 0 0 0 0 0 0 0 0 0 0 0 0 0 0 0 0 0 0 0 0 0 0 0 0 0 0 0 0 0 0 0 0 0 0 0 0
Wind_Speed
15 12 11 9 8 7 6 7 7 8 9 9 9 10 12 13 13 14 15 16 18 18 18 21 23 22 18 16 16 17 17 18 22 20 18 20 25 26 22 19 16 15 14
15 13 11 9 8 7 7 7 7 8 8 8 9 10 12 13 13 14 16 16 17 19 20 21 23 19 23 19 17 19 18 18 20 23 20 20 25 26 23 19 14 12 12
14 13 11 9 8 7 7 6 7 7 8 8 9 11 12 12 13 14 15 16 17 18 19 21 22 22 23 19 20 19 16 17 18 19 20 19 19 20 18 14 14 11 14
14 12 11 9 8 7 6 6 6 7 8 9 9 10 12 12 13 14 15 16 18 19 20 21 22 22 23 22 19 20 18 18 19 18 18 18 18 19 12 10 10 9 11
14 12 10 8 7 6 6 6 6 6 8 9 10 11 11 11 11 14 16 18 20 21 21 22 23 24 28 25 19 18 18 16 16 16 16 15 16 13 9 8 9 8 10
14 12 10 9 8 6 5 5 6 6 7 8 9 11 12 10 17 24 22 20 20 22 22 22 22 24 26 32 35 34 31 24 20 18 16 17 18 15 10 8 7 7 8
14 12 11 10 8 6 5 5 6 6 7 8 9 10 13 16 23 26 28 23 22 21 22 21 19 19 24 22 26 31 31 33 34 25 23 22 20 17 12 9 7 8 10
14 12 10 9 7 6 5 5 5 4 6 7 9 11 13 16 24 28 30 23 21 21 21 22 23 23 21 23 21 22 22 23 25 23 22 23 22 20 14 8 5 7 10
14 12 10 9 7 6 5 4 3 4 6 7 9 11 14 17 23 27 29 19 18 21 21 22 23 23 27 30 25 23 22 20 25 31 33 31 32 30 18 7 6 8 10
15 12 10 8 7 6 4 2 2 4 6 7 9 11 15 16 22 26 28 16 18 19 19 20 24 25 29 31 24 21 21 19 18 18 22 25 24 25 26 15 9 8 7
13 12 10 8 6 5 3 1 2 4 5 7 10 12 14 15 20 25 28 17 18 20 18 17 17 28 32 32 30 22 24 22 16 16 16 16 15 13 13 12 10 9 10
12 11 9 7 6 5 3 1 1 3 5 7 9 11 10 12 16 21 28 27 27 20 18 17 19 32 35 34 27 26 30 26 14 13 14 14 14 13 11 11 13 13 14
12 10 9 8 6 4 3 2 1 2 4 6 8 10 10 11 14 22 25 28 29 19 16 25 31 33 30 22 24 26 21 15 13 13 15 15 13 13 11 10 11 11 14
13 11 10 8 7 5 3 2 1 2 3 6 8 9 11 11 12 14 14 15 19 18 16 18 25 26 21 18 14 12 10 11 13 14 13 13 12 12 12 11 10 10 12
13 10 9 7 6 5 4 2 0 1 4 8 7 9 11 12 17 26 21 15 15 17 17 12 12 14 13 12 12 11 11 12 11 11 11 13 13 13 11 10 10 11 14
13 10 7 6 5 4 4 3 2 3 7 10 11 12 11 16 24 26 27 25 25 26 16 13 14 14 15 14 14 13 12 12 12 11 10 12 11 11 11 10 11 12 14
13 11 7 6 5 5 4 3 3 5 7 8 10 14 17 20 22 24 25 24 22 22 12 12 14 15 15 15 14 14 13 13 12 12 11 11 10 10 11 11 11 12 13
12 11 9 7 6 5 4 3 3 3 4 6 8 13 18 20 19 22 24 20 14 14 12 13 14 15 16 16 15 15 14 13 11 11 11 11 12 11 11 12 12 13 11
12 9 8 7 6 6 5 4 4 2 3 5 6 8 14 17 15 18 19 11 12 13 13 13 14 15 16 16 16 15 15 14 14 13 12 12 12 12 12 12 11 13 10
10 13 10 8 7 6 5 5 4 2 2 4 5 6 9 8 8 11 11 10 11 12 13 14 14 16 16 16 16 16 15 14 15 13 12 12 12 13 13 12 10 10 10
11 11 12 8 6 6 5 5 4 1 1 3 4 6 11 6 7 10 10 10 10 12 13 14 14 16 16 16 16 18 19 16 15 14 13 13 12 13 11 7 7 8 9
11 10 8 7 6 6 6 5 3 2 1 4 4 5 10 5 6 8 9 10 10 10 12 13 13 14 16 17 18 19 19 18 17 16 14 13 12 12 11 5 5 6 9
11 11 9 7 7 8 6 5 3 2 1 3 4 4 5 5 6 7 9 11 11 11 12 12 13 14 16 16 17 18 19 20 19 19 17 15 13 11 10 5 4 6 8
11 11 10 8 7 7 6 5 4 2 1 3 3 4 4 5 6 8 9 10 11 12 12 12 14 20 26 21 17 18 20 22 22 17 20 17 16 13 10 5 3 6 7
10 10 9 8 7 7 6 5 4 2 1 2 3 3 4 5 6 8 9 9 12 12 15 15 13 17 23 25 23 23 30 33 30 23 19 16 18 17 15 10 3 4 5
10 9 8 7 6 6 5 5 4 2 1 2 3 3 4 5 6 7 8 9 11 12 13 13 17 22 25 20 23 28 32 34 34 32 22 18 20 20 19 13 12 3 4
Wind_Direction
175 174 179 186 195 208 225 237 250 261 270 278 286 288 287 287 286 282 279 280 277 276 273 271 269 266 263 259 256 254 254 257 265 271 271 271 272 270 262 255 254 264 267
170 171 179 182 192 211 228 243 257 267 275 283 288 286 285 285 286 285 284 282 281 281 279 277 274 273 267 264 260 257 257 258 263 271 271 269 268 268 260 253 254 262 262
166 169 174 181 195 214 233 249 261 272 281 285 284 283 285 289 291 289 287 286 285 283 282 279 276 274 270 266 263 262 261 263 264 268 270 267 268 266 257 253 258 262 268
164 167 174 183 196 214 235 252 265 278 284 284 285 287 288 290 290 291 291 290 287 282 278 275 273 270 268 266 265 262 260 260 260 262 265 264 267 264 251 252 264 264 265
162 167 175 181 196 215 234 253 271 280 281 284 288 290 291 292 293 296 297 292 290 287 282 277 273 270 266 264 261 260 258 257 259 262 264 264 265 257 246 250 266 287 278
162 166 169 181 195 211 230 256 271 277 283 287 289 295 299 297 299 301 301 298 295 291 287 283 277 273 268 266 263 260 257 256 256 259 264 264 270 269 261 257 266 286 285
163 165 174 183 191 203 224 245 258 277 290 294 301 306 304 302 304 306 304 302 295 291 289 286 280 276 273 268 266 265 262 261 258 258 259 258 264 270 265 255 253 261 270
163 168 175 180 185 197 220 239 262 285 296 301 306 304 300 300 306 305 304 301 295 292 289 286 283 280 276 273 269 266 259 255 256 257 258 257 256 261 259 252 261 276 277
166 171 173 175 179 198 219 237 283 304 303 301 298 301 300 299 301 302 305 302 295 293 289 285 282 280 279 279 275 273 270 261 257 256 257 259 258 254 244 237 250 269 285
167 162 161 166 178 196 209 252 303 305 300 305 306 303 295 292 298 307 310 302 300 298 293 286 280 278 278 278 275 274 275 268 257 258 258 260 257 249 244 239 237 253 275
147 145 151 161 176 186 195 254 298 307 313 309 302 296 293 297 306 311 313 311 306 304 301 297 292 290 287 282 277 272 275 279 260 253 255 254 251 243 237 231 224 230 248
139 141 146 159 173 171 179 205 292 324 316 311 306 303 305 310 312 315 319 319 317 310 305 303 302 299 291 283 276 270 274 281 266 247 247 247 241 237 231 226 223 225 237
140 143 151 162 167 162 166 143 54 352 323 315 312 315 315 316 317 323 325 326 323 317 309 313 314 312 302 287 277 277 277 271 265 247 241 244 242 240 236 229 224 230 248
147 152 157 159 156 153 159 126 84 340 322 315 321 319 317 320 325 330 333 331 327 324 325 322 322 328 331 323 306 302 292 273 263 252 242 243 242 238 233 228 230 237 249
152 156 152 147 141 137 119 112 190 309 299 317 323 319 324 327 334 340 344 339 335 337 339 330 332 336 338 336 333 328 325 313 282 254 247 247 242 237 233 226 230 238 242
153 155 149 142 134 121 111 116 79 11 337 329 324 327 329 335 339 345 347 346 344 349 351 343 341 339 338 337 334 332 328 324 321 308 277 255 242 234 232 230 231 238 237
152 147 142 137 130 118 101 78 46 10 350 326 330 339 347 349 351 351 351 346 345 354 357 349 342 337 336 337 334 329 326 322 315 307 299 289 269 248 240 240 242 240 230
143 139 137 134 131 127 122 106 77 30 337 315 323 338 351 354 353 356 356 348 341 351 352 346 339 336 335 335 333 328 325 322 318 309 302 295 284 266 249 244 243 237 216
143 140 135 133 135 133 133 129 112 93 294 296 312 328 340 347 351 355 358 351 340 340 343 341 337 335 334 334 333 329 328 326 322 313 301 295 289 276 256 244 238 223 196
141 139 137 137 138 136 135 124 110 97 316 311 319 316 325 343 345 342 345 344 339 336 337 336 334 335 335 335 334 332 331 330 326 318 310 303 297 286 263 240 227 208 187
139 138 138 137 137 134 127 112 107 101 341 311 308 304 343 349 332 329 331 337 336 332 332 332 331 335 336 337 338 336 336 336 333 326 318 308 299 293 279 242 212 194 176
135 137 142 140 136 129 119 115 119 106 336 309 307 317 346 352 337 329 327 327 328 324 325 325 328 334 336 338 341 340 340 342 340 333 323 312 303 296 289 252 195 175 166
134 137 138 137 134 129 124 124 123 107 322 309 311 321 337 344 338 328 324 322 323 322 325 326 329 335 337 339 346 346 345 347 342 334 330 323 320 313 301 275 186 165 166
139 142 141 141 138 135 132 130 126 135 278 298 312 324 336 337 330 324 322 320 322 320 325 326 329 334 337 343 350 352 351 354 350 343 341 341 341 334 318 293 192 164 166
141 140 141 144 143 139 135 131 135 170 254 295 317 331 338 334 328 324 324 323 323 321 325 326 331 334 336 343 355 358 357 2 2 358 354 357 360 357 348 334 323 167 163
137 137 140 142 141 138 135 136 149 177 245 294 316 330 332 327 321 321 323 324 326 321 324 324 331 335 339 344 356 3 4 6 8 6 7 8 12 11 8 2 354 346 177